Regional Weather Roundup
Issued by NWS

Home | Current Version | Previous Version | Text Only | Print | Product List | Glossary On
Versions: 1 2 3 4 5 6 7 8 9 10 11 12 13 14 15 16 17 18 19 20 21 22 23 24 25 26 27 28 29 30 31 32 33 34 35 36 37 38 39 40 41 42 43 44 45 46 47 48 49 50
000
ASUS43 KLSX 202059
RWRMO

WEATHER SUMMARY FOR MISSOURI
NATIONAL WEATHER SERVICE SPRINGFIELD MO
400 PM CDT MON OCT 20 2014

NOTE: "FAIR" INDICATES FEW OR NO CLOUDS BELOW 12,000 FEET WITH NO
       SIGNIFICANT WEATHER AND/OR OBSTRUCTIONS TO VISIBILITY.
       CURRENT SKY AND/OR WEATHER CONDITIONS ARE NOT AVAILABLE FOR
       CHILLICOTHE AND FARMINGTON.

MOZ001>031-035>038-043-044-053-054-202200-
...NORTHERN AND WESTERN MISSOURI...

CITY           SKY/WX    TMP DP  RH WIND       PRES   REMARKS
KANSAS CTY INT SUNNY     73  44  35 N6        30.03F
KANSAS C DTWN  SUNNY     75  44  33 N7        30.02F
LEE`S SUMMIT   SUNNY     73  46  38 N7        30.03F
ST JOSEPH      SUNNY     76  39  26 N7        30.03F
CHILLICOTHE      N/A     73  43  33 VRB3      30.03S
KIRKSVILLE     SUNNY     70  44  39 N10       30.00F

$$
MOZ066>068-077>081-088>096-101>105-202200-
...SOUTHWEST MISSOURI...

CITY           SKY/WX    TMP DP  RH WIND       PRES   REMARKS
SPRINGFIELD    SUNNY     74  54  49 NW5       30.01S
JOPLIN         SUNNY     75  56  51 N6        30.02F

$$
MOZ032>034-039>042-045>050-055>058-069>072-202200-
...CENTRAL MISSOURI...

CITY           SKY/WX    TMP DP  RH WIND       PRES   REMARKS
COLUMBIA       SUNNY     73  42  32 NW13      29.99S
JEFFERSON CITY SUNNY     75  43  31 NW8       29.98S
ROLLA          SUNNY     72  50  45 W12       29.97F
SEDALIA        SUNNY     75  43  31 NW10      30.02S
OSAGE BEACH    SUNNY     73  54  49 W7        29.99F

$$
MOZ051-052-059>065-202200-
...EAST CENTRAL MISSOURI...

CITY           SKY/WX    TMP DP  RH WIND       PRES   REMARKS
ST LOUIS INTL  MOSUNNY   74  43  32 W16       29.95S
SPIRIT OF STL  SUNNY     73  44  35 NW14      29.94S
ST CHARLES     SUNNY     72  44  36 NW10      29.94R

$$
MOZ072>076-082>087-097>100-106>115-202200-
...SOUTH CENTRAL AND SOUTHEAST MISSOURI...

CITY           SKY/WX    TMP DP  RH WIND       PRES   REMARKS
CAPE GIRARDEAU SUNNY     74  55  51 SW10      29.93F
FARMINGTON     MOSUNNY   73  48  40 W12       29.96F
WEST PLAINS    MOSUNNY   73  56  54 W8        30.00S HAZE

$$


USA.gov is the U.S. government's official web portal to all federal, state and local government web resources and services.